Home > Time Zones > World Clock > Weather > U.S.A. > Nome > Past weeks

Flag for U.S.A. Weather past 2 weeks in Nome, Alaska, U.S.A.

26 °F

Light snow. Overcast.

Feels Like: 11 °F
Forecast: 15 / 29 °F
Wind: 25 mph from Southwest

Location: Nome Airport

Current Time: Nov 25, 2015 at 7:17:17 AM

Latest Report: Nov 25, 2015 at 5:53 AM

Visibility: 7 mi

Pressure: 29.67 "Hg

Humidity: 81%

Dew point: 21 °F

Location of NomeLocation

Historic Weather in Nome — Graph


Nome temperature yesterday

Maximum temperature yesterday: 32 °F (at 12:53 AM)
Minimum temperature yesterday: 30 °F (at 9:56 PM)
Average temperature yesterday: 32 °F

Past Weeks' High & Low Weather Summary

High32 °F (Nov 23, 8:53 PM)100% (Nov 23, 11:02 PM)30.16 "Hg (Nov 23, 11:02 PM)
Low-7 °F (Nov 17, 10:53 AM)55% (Nov 18, 11:53 PM)28.95 "Hg (Nov 19, 5:53 PM)
Average14 °F80%29.59 "Hg
* Reported Nov 10 5:53 AM — Nov 25 5:53 AM, Nome, Weather by CustomWeather, © 2015

Note: Actual official high and low records may vary slightly from our data, if they occured in-between our weather recording intervals... More about our weather records


Nome weather history for previous 24 hours

Time TempWeatherWind HumidityBarometerVisibility
5:53 AM
Wed, Nov 25
26 °FLight snow. Overcast.25 mph81%29.67 "Hg7 mi
4:53 AM27 °FOvercast.18 mph72%29.65 "Hg10 mi
3:53 AM28 °FOvercast.22 mph69%29.62 "Hg9 mi
2:53 AM27 °FOvercast.21 mph72%29.60 "Hg10 mi
1:58 AM28 °FLight snow. Ice fog.20 mph89%29.57 "Hg2 mi
1:02 AM28 °FLight snow. Mostly cloudy.13 mph96%29.55 "Hg8 mi
12:53 AM28 °FLight snow. Ice fog.13 mph93%29.55 "Hg1 mi
11:53 PM
Tue, Nov 24
30 °FMostly cloudy.18 mph85%29.52 "Hg10 mi
10:53 PM30 °FMostly cloudy.17 mph92%29.48 "Hg10 mi
9:56 PM30 °FLight snow. Mostly cloudy.21 mph100%29.44 "Hg1 mi
8:53 PM31 °FLow clouds.21 mph92%29.40 "Hg10 mi
7:53 PM31 °FLight snow. Low clouds.17 mph96%29.36 "Hg8 mi
6:53 PM32 °FLight snow. Ice fog.16 mph96%29.33 "Hg3 mi
6:00 PM32 °FLight snow. Ice fog.14 mph96%29.29 "Hg2 mi
5:03 PM31 °FMostly cloudy.14 mph96%29.28 "Hg10 mi
4:53 PM32 °FMostly cloudy.15 mph92%29.28 "Hg8 mi
3:53 PM32 °FMore clouds than sun.14 mph88%29.28 "Hg8 mi
2:53 PM31 °FLight snow. Ice fog.14 mph100%29.27 "Hg1 mi
2:04 PM32 °FIce fog.13 mph96%29.27 "Hg5 mi
1:53 PM32 °FIce fog.12 mph96%29.26 "Hg6 mi
1:03 PM32 °FLight snow. Ice fog.17 mph96%29.25 "Hg3 mi
12:04 PM32 °FLight snow. Ice fog.16 mph100%29.23 "Hg3 mi
11:53 AM32 °FLight snow. Ice fog.16 mph100%29.23 "Hg2 mi
10:53 AM32 °FIce fog.20 mph100%29.20 "Hg3 mi
9:53 AM32 °FIce fog.21 mph100%29.18 "Hg6 mi
8:57 AM32 °FLight snow. Ice fog.17 mph96%29.17 "Hg2 mi
7:53 AM32 °FLow clouds.16 mph96%29.18 "Hg7 mi
Weather by CustomWeather, © 2015

See weather overviewHow to use our weather pages